GW4194 Weather Reports


time (UTC)temp
C
wind
direction
speed
KPH
gust
KPH
rain 1hr
cm
rain 24hr
cm
rain mn
cm
humidity
%
barometer
mb
20260503054557 2 0 0.0 0.0 0.00 0.00 0.00 89 1020.0
20260503053058 2 0 0.0 0.0 0.00 0.00 0.00 89 1019.9
20260503051600 2 0 0.0 0.0 0.00 0.00 0.00 89 1019.9
20260503050058 2 0 0.0 0.0 0.00 0.00 0.00 89 1019.8
20260503044559 2 0 0.0 0.0 0.00 0.00 0.00 88 1019.8
20260503043101 3 0 0.0 0.0 0.00 0.00 0.00 87 1019.7
20260503041558 3 0 0.0 0.0 0.00 0.00 0.00 86 1019.7
20260503040059 3 0 0.0 0.0 0.00 0.00 0.00 85 1019.7
20260503034558 3 0 0.0 0.0 0.00 0.00 0.00 84 1019.6
20260503033057 4 0 0.0 0.0 0.00 0.00 0.00 83 1019.5
20260503031610 5 0 0.0 0.0 0.00 0.00 0.00 80 1019.3
20260503030058 5 0 0.0 0.0 0.00 0.00 0.00 77 1019.2
20260503024604 6 0 0.0 0.0 0.00 0.00 0.00 76 1019.1
20260503023058 6 0 0.0 0.0 0.00 0.00 0.00 71 1019.0
20260503021555 6 0 0.0 0.0 0.00 0.00 0.00 74 1018.8
20260503020101 7 0 0.0 1.6 0.00 0.00 0.00 73 1018.7
20260503014559 7 0 0.0 0.0 0.00 0.00 0.00 71 1018.4
20260503013101 7 0 0.0 0.0 0.00 0.00 0.00 68 1018.3
20260503011607 7 0 0.0 0.0 0.00 0.00 0.00 69 1018.1
20260503004559 8 0 0.0 0.0 0.00 0.00 0.00 62 1017.8
20260503003104 9 0 0.0 0.0 0.00 0.00 0.00 53 1017.6
20260503001559 10 0 0.0 0.0 0.00 0.00 0.00 51 1017.3
20260503000111 10 0 0.0 0.0 0.00 0.00 0.00 51 1017.2
20260502234559 11 0 0.0 4.8 0.00 0.00 0.00 49 1017.1
20260502233106 11 296 0.0 6.4 0.00 0.00 0.00 48 1017.0
20260502231618 11 297 0.0 9.7 0.00 0.00 0.00 47 1016.9
20260502230058 11 302 1.6 8.0 0.00 0.00 0.00 45 1016.8
20260502224600 11 0 3.2 14.5 0.00 0.00 0.00 46 1016.7
20260502223100 11 326 0.0 16.1 0.00 0.00 0.00 45 1016.6
20260502221559 12 47 1.6 14.5 0.00 0.00 0.00 46 1016.6
20260502220056 12 340 3.2 12.9 0.00 0.00 0.00 44 1016.5
20260502214559 12 209 1.6 11.3 0.00 0.00 0.00 44 1016.6
20260502213057 12 0 3.2 14.5 0.00 0.00 0.00 46 1016.4
20260502211603 12 13 1.6 12.9 0.00 0.00 0.00 47 1016.4
20260502210057 12 276 4.8 14.5 0.00 0.00 0.00 43 1016.4
20260502204604 12 328 3.2 11.3 0.00 0.00 0.00 45 1016.3
20260502203058 12 313 1.6 6.4 0.00 0.00 0.00 47 1016.5
20260502201605 11 323 1.6 9.7 0.00 0.00 0.00 46 1016.5
20260502200059 12 251 6.4 17.7 0.00 0.00 0.00 42 1016.6
20260502194621 12 16 4.8 11.3 0.00 0.00 0.00 48 1016.7
20260502193108 12 0 1.6 12.9 0.00 0.00 0.00 49 1016.9
20260502191606 12 282 3.2 11.3 0.00 0.00 0.00 45 1017.0
20260502190057 12 71 1.6 9.7 0.00 0.00 0.00 45 1017.0
20260502184608 12 0 1.6 8.0 0.00 0.00 0.00 46 1017.3
20260502183055 11 5 1.6 6.4 0.00 0.00 0.00 50 1017.6
20260502181559 11 337 1.6 12.9 0.00 0.00 0.00 46 1017.3
20260502163058 12 348 1.6 8.0 0.00 0.00 0.00 47 1017.9
20260502161623 11 45 0.0 12.9 0.00 0.00 0.00 49 1018.0
20260502160133 11 18 3.2 8.0 0.00 0.00 0.00 46 1018.1
20260502151559 11 0 3.2 6.4 0.00 0.00 0.00 56 1018.4
20260502130121 5 0 0.0 0.0 0.00 0.00 0.00 93 1018.6
20260502123125 3 0 0.0 0.0 0.00 0.00 0.00 93 1018.8
20260502121604 2 0 0.0 0.0 0.00 0.00 0.00 93 1018.4
20260502120137 2 0 0.0 0.0 0.00 0.00 0.00 93 1018.4
20260502114558 2 0 0.0 0.0 0.00 0.00 0.00 93 1018.3
20260502113100 2 0 0.0 0.0 0.00 0.00 0.00 93 1018.3
20260502111558 2 0 0.0 0.0 0.00 0.00 0.00 93 1018.2
20260502110057 2 0 0.0 0.0 0.00 0.00 0.00 93 1018.1
20260502104557 2 0 0.0 0.0 0.00 0.00 0.00 92 1017.9
20260502103058 2 0 0.0 0.0 0.00 0.00 0.00 92 1017.9
20260502101605 2 0 0.0 0.0 0.00 0.00 0.00 92 1017.9
20260502070057 3 0 0.0 0.0 0.00 0.00 0.00 90 1017.8